This demonstration page uses our WeatherBlox Daily Observations layout. Learn more.

Left ArrowRight Arrow

38.88101, -77.10428

Hourly Observations for June 9, 2021

Temp ( °F °C ) Dew Point ( °F °C ) Humidity (%) Winds ( mph kmh ) Pressure ( in mb ) Visibility ( mi km ) Precip ( " mm )
12:52 am 00:52 Mostly Cloudy 79 26.1 72 22.2 79 79 S 6 9 30.03 1017 10 16 N/A
1:52 am 01:52 Cloudy 79 26.1 72 22.2 79 79 N N/A 30.03 1017 10 16 N/A
2:52 am 02:52 Cloudy 78 25.6 70 21.1 76 76 N N/A 30.02 1017 10 16 N/A
3:52 am 03:52 Mostly Cloudy 78 25.6 70 21.1 76 76 N 3 6 30.01 1016 10 16 N/A
4:52 am 04:52 Mostly Cloudy 78 25.6 68 20 71 71 NW 5 7 30.01 1016 10 16 N/A
5:52 am 05:52 Mostly Cloudy 76 24.4 68 20 77 77 NNE 5 7 30.02 1017 10 16 N/A
6:52 am 06:52 Mostly Cloudy 77 25 68 20 74 74 WNW 7 11 30.03 1017 10 16 N/A
7:52 am 07:52 Mostly Cloudy 79 26.1 69 20.6 72 72 N 6 9 30.04 1017 10 16 N/A
8:52 am 08:52 Cloudy 81 27.2 69 20.6 67 67 W 6 9 30.05 1018 10 16 N/A
9:52 am 09:52 Cloudy 84 28.9 69 20.6 61 61 NW 7 11 30.05 1018 10 16 N/A
10:52 am 10:52 Cloudy 84 28.9 69 20.6 61 61 NNW 9 15 30.06 1018 10 16 N/A
11:52 am 11:52 Cloudy 83 28.3 70 21.1 65 65 WNW 8 13 30.06 1018 10 16 N/A
12:52 pm 12:52 Mostly Sunny 83 28.3 70 21.1 65 65 NW 8 13 30.06 1018 10 16 N/A
1:52 pm 13:52 Cloudy 86 30 71 21.7 61 61 NW 7 11 30.04 1017 10 16 0.00 0.00
2:52 pm 14:52 Cloudy 87 30.6 70 21.1 57 57 NNW 8 13 30.02 1017 10 16 N/A
3:52 pm 15:52 Mostly Cloudy 88 31.1 71 21.7 57 57 NNW 9 15 29.99 1016 10 16 N/A
4:52 pm 16:52 Mostly Cloudy 88 31.1 70 21.1 55 55 N 8 13 29.99 1016 10 16 N/A
5:52 pm 17:52 Mostly Cloudy 86 30 68 20 55 55 N 8 13 29.98 1015 10 16 N/A
6:52 pm 18:52 Mostly Cloudy 84 28.9 69 20.6 61 61 N 9 15 29.99 1016 10 16 N/A
7:52 pm 19:52 Mostly Cloudy 83 28.3 68 20 61 61 NNW 8 13 29.99 1016 10 16 N/A
8:52 pm 20:52 Mostly Cloudy 83 28.3 66 18.9 57 57 NW 5 7 30.00 1016 10 16 N/A
9:52 pm 21:52 Cloudy 79 26.1 69 20.6 72 72 S 13 20 30.01 1016 10 16 N/A
10:52 pm 22:52 Mostly Cloudy 78 25.6 69 20.6 74 74 SSW 7 11 30.01 1016 10 16 N/A
11:52 pm 23:52 Cloudy 76 24.4 69 20.6 79 79 S 7 11 30.01 1016 10 16 N/A

Powered by AerisWeather